Simultaneous Nadir Overpasses (SNOs) Predictions

Prediction of SNOs near US between AQUA and NPP Satellite Orbit:

Table of predicted SNOs near US for the next 10.0 days since TLE Epoch: 6/22/2018
Index Date (AQUA) Time (AQUA) AQUA Lat,Lon Date (NPP) Time (NPP) NPP Lat,Lon Distance(km) Time Diff (sec)
1 06/23/2018 06:30:59 45.26, -65.43 06/23/2018 06:30:40 45.58, -67.41 158.15 19
2 06/23/2018 08:08:34 49.90, -88.35 06/23/2018 08:10:47 50.36, -90.78 180.83 133
3 06/23/2018 09:47:27 49.90,-113.07 06/23/2018 09:52:14 50.52,-116.08 225.24 287
4 06/25/2018 19:06:44 49.99, -92.53 06/25/2018 19:01:03 49.64, -94.34 135.72 341
5 06/25/2018 20:45:37 49.98,-117.25 06/25/2018 20:42:31 49.53,-119.67 180.98 186
6 06/28/2018 10:12:28 26.68,-125.00 06/28/2018 10:05:58 24.71,-126.17 248.30 390
7 07/01/2018 07:19:07 49.88, -76.00 07/01/2018 07:20:01 50.32, -78.10 157.35 54
8 07/01/2018 08:58:00 49.89,-100.72 07/01/2018 09:01:29 50.43,-103.42 201.82 209




NCC Satellite Simultaneous Nadir Overpasses (SNOs) Prediction Service
